Precipitable_Water
0.26 0.29 0.32 0.35 0.35 0.36 0.35 0.37 0.34 0.32 0.33 0.32 0.35 0.36 0.39 0.42 0.42 0.46 0.47 0.49 0.57 0.60 0.71 0.89 1.03 1.26 1.34 1.39 1.37 1.47 1.47 1.51
0.29 0.32 0.34 0.36 0.36 0.36 0.36 0.36 0.34 0.34 0.33 0.31 0.32 0.31 0.37 0.40 0.40 0.42 0.42 0.45 0.49 0.54 0.58 0.64 0.79 1.03 1.20 1.32 1.33 1.35 1.35 1.46
0.29 0.30 0.32 0.33 0.34 0.36 0.38 0.37 0.35 0.35 0.33 0.33 0.36 0.35 0.39 0.36 0.39 0.38 0.35 0.37 0.45 0.48 0.53 0.56 0.61 0.69 0.93 1.14 1.25 1.25 1.34 1.38
0.25 0.27 0.30 0.31 0.32 0.34 0.36 0.36 0.35 0.35 0.33 0.33 0.35 0.38 0.36 0.29 0.33 0.35 0.33 0.36 0.40 0.45 0.50 0.53 0.55 0.59 0.67 0.85 1.03 1.20 1.19 1.36
0.25 0.27 0.28 0.30 0.32 0.35 0.36 0.36 0.34 0.34 0.33 0.31 0.33 0.36 0.34 0.30 0.31 0.33 0.30 0.36 0.37 0.41 0.44 0.51 0.54 0.57 0.57 0.70 0.92 0.99 1.14 1.15
0.25 0.26 0.27 0.30 0.34 0.35 0.38 0.37 0.34 0.35 0.32 0.33 0.33 0.33 0.36 0.32 0.30 0.29 0.29 0.33 0.37 0.39 0.42 0.45 0.51 0.56 0.57 0.58 0.69 0.85 1.06 1.15
0.23 0.25 0.29 0.31 0.34 0.36 0.38 0.37 0.35 0.35 0.33 0.33 0.34 0.34 0.35 0.29 0.26 0.27 0.28 0.30 0.33 0.35 0.37 0.42 0.47 0.52 0.56 0.56 0.58 0.74 0.90 1.07
0.23 0.26 0.29 0.30 0.32 0.35 0.37 0.37 0.34 0.35 0.33 0.34 0.33 0.37 0.35 0.28 0.28 0.26 0.27 0.28 0.30 0.33 0.36 0.40 0.43 0.50 0.54 0.58 0.57 0.58 0.77 0.90
0.25 0.29 0.30 0.32 0.34 0.36 0.38 0.36 0.34 0.34 0.33 0.34 0.34 0.40 0.35 0.30 0.26 0.27 0.29 0.29 0.31 0.33 0.35 0.39 0.42 0.47 0.52 0.56 0.57 0.57 0.63 0.79
0.29 0.31 0.30 0.32 0.35 0.37 0.38 0.37 0.36 0.33 0.32 0.33 0.35 0.38 0.35 0.29 0.28 0.29 0.30 0.30 0.33 0.33 0.34 0.36 0.41 0.44 0.51 0.53 0.55 0.58 0.58 0.69
0.33 0.28 0.30 0.32 0.35 0.37 0.38 0.37 0.34 0.30 0.32 0.32 0.37 0.36 0.31 0.28 0.30 0.28 0.29 0.31 0.32 0.33 0.33 0.37 0.38 0.43 0.47 0.53 0.53 0.58 0.58 0.62
0.31 0.28 0.30 0.31 0.34 0.35 0.35 0.33 0.29 0.28 0.30 0.33 0.34 0.32 0.33 0.33 0.32 0.30 0.29 0.32 0.32 0.34 0.33 0.36 0.37 0.40 0.44 0.50 0.53 0.56 0.58 0.58
0.28 0.28 0.29 0.31 0.31 0.32 0.31 0.28 0.26 0.29 0.29 0.32 0.32 0.29 0.32 0.33 0.34 0.33 0.29 0.31 0.33 0.34 0.34 0.36 0.37 0.39 0.41 0.45 0.51 0.55 0.56 0.59
0.27 0.27 0.29 0.30 0.30 0.29 0.26 0.23 0.26 0.29 0.29 0.31 0.30 0.28 0.29 0.31 0.32 0.33 0.31 0.29 0.32 0.33 0.33 0.34 0.36 0.38 0.39 0.42 0.49 0.53 0.57 0.59
0.26 0.27 0.28 0.28 0.27 0.25 0.21 0.24 0.28 0.28 0.29 0.29 0.28 0.30 0.31 0.32 0.34 0.33 0.30 0.30 0.31 0.32 0.33 0.33 0.35 0.38 0.38 0.40 0.45 0.52 0.55 0.58
0.24 0.25 0.26 0.25 0.23 0.20 0.22 0.24 0.27 0.28 0.28 0.27 0.28 0.30 0.32 0.34 0.34 0.32 0.30 0.30 0.32 0.34 0.33 0.32 0.34 0.38 0.38 0.38 0.42 0.49 0.53 0.55
0.24 0.25 0.24 0.21 0.20 0.21 0.22 0.24 0.26 0.28 0.28 0.26 0.28 0.30 0.30 0.33 0.32 0.31 0.31 0.31 0.32 0.34 0.32 0.31 0.34 0.38 0.39 0.38 0.41 0.46 0.52 0.53
0.23 0.23 0.21 0.19 0.20 0.22 0.22 0.24 0.27 0.27 0.27 0.26 0.26 0.29 0.29 0.30 0.31 0.30 0.31 0.32 0.33 0.33 0.33 0.32 0.33 0.38 0.39 0.37 0.40 0.46 0.50 0.53
0.23 0.20 0.19 0.20 0.22 0.22 0.23 0.24 0.26 0.25 0.26 0.27 0.26 0.27 0.27 0.29 0.29 0.30 0.32 0.33 0.32 0.33 0.33 0.33 0.33 0.38 0.39 0.37 0.40 0.46 0.48 0.53
Wind_Speed
28 29 30 31 31 32 32 31 31 30 28 27 25 24 23 24 24 25 25 27 30 34 38 40 38 38 37 37 41 38 42 40
29 30 31 32 32 32 32 32 31 29 28 27 26 25 23 23 22 23 24 25 26 29 33 37 38 39 38 38 39 38 44 45
30 31 32 33 33 33 33 32 30 29 28 26 25 25 23 23 23 23 24 24 24 25 28 33 36 38 40 39 41 41 48 41
31 33 33 34 34 33 33 32 31 29 29 27 26 24 23 23 23 22 23 23 24 24 25 28 32 36 38 39 41 38 39 43
31 33 34 35 35 34 32 31 30 29 28 27 26 25 24 25 24 23 23 23 23 23 23 25 29 32 36 38 39 41 43 41
31 33 34 35 35 35 33 31 31 29 28 27 26 25 25 24 24 24 23 23 23 23 24 23 26 30 33 37 40 40 43 45
31 32 34 34 35 35 34 33 31 30 29 27 26 26 24 25 25 23 23 23 23 23 23 24 24 27 31 34 39 43 43 44
31 32 33 34 35 35 36 35 33 31 29 28 26 24 25 25 24 24 23 23 23 23 24 23 23 24 28 32 35 41 43 43
31 31 32 34 35 36 36 37 35 32 30 28 27 24 23 25 24 23 22 22 22 23 23 23 23 23 25 29 33 36 43 44
29 30 32 33 34 36 37 38 37 34 30 29 26 25 25 26 24 23 22 22 22 22 22 22 22 22 22 25 29 33 39 44
28 31 32 33 34 36 38 39 39 37 33 29 26 26 26 23 22 23 22 22 21 21 21 21 21 21 20 22 25 29 33 41
29 31 32 33 35 36 38 39 40 38 36 30 26 26 24 22 21 22 22 22 21 20 20 20 20 20 19 19 22 26 30 36
29 30 32 33 35 37 38 40 40 39 37 32 27 26 24 22 21 22 22 22 21 20 20 19 19 18 17 18 19 22 27 31
28 30 32 34 35 37 39 40 40 39 37 33 29 25 23 22 22 21 22 21 20 18 18 18 18 17 16 17 18 19 23 27
28 30 32 34 36 37 38 39 39 39 37 35 30 25 23 22 21 22 23 20 18 18 17 17 17 16 16 16 16 17 19 24
28 30 32 34 35 37 38 39 39 39 38 36 31 26 23 22 22 23 22 19 17 17 16 16 16 15 17 16 15 15 16 19
28 30 31 33 35 37 38 38 38 39 38 36 33 28 24 23 23 23 22 20 17 16 16 16 16 16 19 17 16 15 16 18
27 29 31 32 35 37 38 38 38 39 38 36 35 30 26 24 23 22 21 20 18 17 16 16 16 16 18 17 15 15 16 17
26 27 29 31 34 36 37 37 38 38 38 36 36 32 28 24 23 22 21 21 19 18 17 16 17 16 19 18 16 14 14 15
Wind_Direction
339 337 334 331 330 328 327 325 324 322 318 316 310 305 298 292 286 284 284 281 273 264 257 254 253 249 247 243 235 231 231 229
341 338 335 333 330 329 327 326 325 324 322 319 314 311 304 297 291 287 287 287 282 272 262 256 253 249 247 244 238 241 229 231
345 343 340 337 332 329 326 324 324 323 323 321 318 312 309 302 297 291 291 287 286 282 270 259 254 250 246 244 242 242 234 233
346 345 344 342 338 334 330 325 322 321 322 320 319 316 314 311 304 297 294 290 288 288 280 268 257 250 247 244 239 237 236 233
349 348 348 346 344 339 335 331 327 321 321 321 320 317 315 314 308 302 299 292 288 288 290 278 263 253 247 243 237 238 235 233
350 350 350 348 347 345 339 334 332 328 322 319 319 316 315 315 312 308 302 296 292 291 290 287 273 257 250 244 240 238 236 232
350 350 350 350 349 348 345 339 334 331 329 322 318 317 316 315 314 312 309 300 294 293 294 290 285 265 253 247 242 238 235 236
350 350 351 351 351 350 348 344 337 331 329 327 322 317 316 317 314 312 311 308 300 297 295 292 290 276 259 250 244 239 235 234
350 350 351 351 352 352 351 348 343 336 329 326 323 319 318 318 315 312 310 309 306 303 298 295 293 287 266 254 246 240 235 233
350 350 351 351 351 352 351 350 347 342 333 328 324 321 318 316 315 313 311 310 307 306 304 300 297 292 274 260 249 243 237 232
349 350 350 350 351 351 350 350 349 346 339 331 326 324 322 318 316 316 313 312 309 309 307 303 303 296 282 267 254 246 240 233
348 349 350 350 351 350 350 350 349 348 344 336 330 328 325 320 317 320 317 315 310 308 310 306 308 303 289 274 263 249 243 237
349 350 350 351 350 351 350 350 350 349 347 343 336 332 330 327 323 320 323 317 314 310 310 310 311 310 296 286 270 257 246 241
349 350 351 351 351 351 351 351 351 351 350 348 342 337 335 332 329 326 325 321 317 314 313 312 314 312 305 296 278 264 250 241
349 351 351 352 352 352 352 352 352 352 352 350 345 340 337 337 336 334 330 325 320 318 318 315 316 314 312 302 291 271 256 245
349 350 351 352 353 353 353 354 354 354 354 353 350 344 341 340 339 339 337 332 326 322 322 319 319 315 318 306 293 279 264 251
348 349 351 352 353 354 354 354 356 356 356 355 353 348 344 342 342 342 342 340 334 328 327 325 322 320 323 313 297 279 270 258
347 349 350 352 354 354 355 355 357 357 357 357 356 352 348 345 344 344 345 345 342 337 333 331 328 325 327 321 306 285 273 263
347 348 350 352 354 355 356 357 358 358 359 359 358 356 352 348 346 346 346 347 346 343 341 337 334 330 331 325 314 295 277 268